iso_date,Year,Hour,Min,DOY,POS_DOY,Lat,Lon,BP,Ts,Ta,has_bp,has_ts,has_ta,BuoyID,Buoy_Type,Buoy_Owner,Logistics,Hemisphere
2021-09-06T18:00:00Z,2021,18,0,249.75,249.75,77.41514,-16.99458,1003.4,-999.0,-999.0,yes,no,no,300534061518060,ITB-17,USIABP,HDMS_Triton,North
2021-09-06T19:00:02Z,2021,19,0,249.7917,249.7917,77.41514,-16.99471,1003.3,-999.0,-999.0,yes,no,no,300534061518060,ITB-17,USIABP,HDMS_Triton,North
2021-09-06T19:59:57Z,2021,20,0,249.8333,249.8333,77.41521,-16.99492,1003.1,-999.0,-999.0,yes,no,no,300534061518060,ITB-17,USIABP,HDMS_Triton,North
2021-09-06T21:00:00Z,2021,21,0,249.875,249.875,77.41524,-16.99486,1002.8,-999.0,-999.0,yes,no,no,300534061518060,ITB-17,USIABP,HDMS_Triton,North
2021-09-06T22:00:02Z,2021,22,0,249.9167,249.9167,77.41536,-16.99474,1002.6,-999.0,-999.0,yes,no,no,300534061518060,ITB-17,USIABP,HDMS_Triton,North
2021-09-06T22:59:57Z,2021,23,0,249.9583,249.9583,77.41559,-16.99499,1002.4,-999.0,-999.0,yes,no,no,300534061518060,ITB-17,USIABP,HDMS_Triton,North
2021-09-07T00:00:00Z,2021,0,0,250.0,250.0,77.41627,-16.9959,1002.1,-999.0,-999.0,yes,no,no,300534061518060,ITB-17,USIABP,HDMS_Triton,North
2021-09-07T01:00:02Z,2021,1,0,250.0417,250.0417,77.41711,-16.9975,1001.9,-999.0,-999.0,yes,no,no,300534061518060,ITB-17,USIABP,HDMS_Triton,North
2021-09-07T01:59:57Z,2021,2,0,250.0833,250.0833,77.41822,-16.99614,1001.7,-999.0,-999.0,yes,no,no,300534061518060,ITB-17,USIABP,HDMS_Triton,North
2021-09-07T03:00:00Z,2021,3,0,250.125,250.125,77.41843,-16.99617,1001.6,-999.0,-999.0,yes,no,no,300534061518060,ITB-17,USIABP,HDMS_Triton,North
2021-09-07T04:00:02Z,2021,4,0,250.1667,250.1667,77.41842,-16.99616,1001.6,-999.0,-999.0,yes,no,no,300534061518060,ITB-17,USIABP,HDMS_Triton,North
2021-09-07T04:59:57Z,2021,5,0,250.2083,250.2083,77.41841,-16.9961,1001.3,-999.0,-999.0,yes,no,no,300534061518060,ITB-17,USIABP,HDMS_Triton,North
2021-09-07T06:00:00Z,2021,6,0,250.25,250.25,77.4184,-16.99612,1001.2,-999.0,-999.0,yes,no,no,300534061518060,ITB-17,USIABP,HDMS_Triton,North
2021-09-07T07:00:02Z,2021,7,0,250.2917,250.2917,77.4184,-16.99613,1000.9,-999.0,-999.0,yes,no,no,300534061518060,ITB-17,USIABP,HDMS_Triton,North
2021-09-07T07:59:57Z,2021,8,0,250.3333,250.3333,77.41835,-16.99617,1000.6,-999.0,-999.0,yes,no,no,300534061518060,ITB-17,USIABP,HDMS_Triton,North
2021-09-07T09:00:00Z,2021,9,0,250.375,250.375,77.4181,-16.9965,1000.2,-999.0,-999.0,yes,no,no,300534061518060,ITB-17,USIABP,HDMS_Triton,North
2021-09-07T10:00:02Z,2021,10,0,250.4167,250.4167,77.41761,-16.99762,999.7,-999.0,-999.0,yes,no,no,300534061518060,ITB-17,USIABP,HDMS_Triton,North
2021-09-07T10:59:57Z,2021,11,0,250.4583,250.4583,77.41501,-17.00142,999.7,-999.0,-999.0,yes,no,no,300534061518060,ITB-17,USIABP,HDMS_Triton,North
2021-09-07T12:00:00Z,2021,12,0,250.5,250.5,77.41101,-17.01229,999.3,-999.0,-999.0,yes,no,no,300534061518060,ITB-17,USIABP,HDMS_Triton,North
2021-09-07T13:00:02Z,2021,13,0,250.5417,250.5417,77.40746,-17.02868,998.9,-999.0,-999.0,yes,no,no,300534061518060,ITB-17,USIABP,HDMS_Triton,North
2021-09-07T13:59:57Z,2021,14,0,250.5833,250.5833,77.40552,-17.04252,998.6,-999.0,-999.0,yes,no,no,300534061518060,ITB-17,USIABP,HDMS_Triton,North
2021-09-07T15:00:00Z,2021,15,0,250.625,250.625,77.40459,-17.05102,998.4,-999.0,-999.0,yes,no,no,300534061518060,ITB-17,USIABP,HDMS_Triton,North
2021-09-07T16:00:02Z,2021,16,0,250.6667,250.6667,77.40332,-17.05354,998.2,-999.0,-999.0,yes,no,no,300534061518060,ITB-17,USIABP,HDMS_Triton,North
2021-09-07T16:59:57Z,2021,17,0,250.7083,250.7083,77.40167,-17.05591,998.2,-999.0,-999.0,yes,no,no,300534061518060,ITB-17,USIABP,HDMS_Triton,North
2021-09-07T18:00:00Z,2021,18,0,250.75,250.75,77.39889,-17.05811,998.3,-999.0,-999.0,yes,no,no,300534061518060,ITB-17,USIABP,HDMS_Triton,North
2021-09-07T19:00:02Z,2021,19,0,250.7917,250.7917,77.39472,-17.05991,998.2,-999.0,-999.0,yes,no,no,300534061518060,ITB-17,USIABP,HDMS_Triton,North
2021-09-07T19:59:57Z,2021,20,0,250.8333,250.8333,77.38916,-17.06348,998.1,-999.0,-999.0,yes,no,no,300534061518060,ITB-17,USIABP,HDMS_Triton,North
2021-09-07T21:00:00Z,2021,21,0,250.875,250.875,77.38271,-17.07075,997.9,-999.0,-999.0,yes,no,no,300534061518060,ITB-17,USIABP,HDMS_Triton,North
2021-09-07T22:00:02Z,2021,22,0,250.9167,250.9167,77.37618,-17.08207,997.6,-999.0,-999.0,yes,no,no,300534061518060,ITB-17,USIABP,HDMS_Triton,North
2021-09-07T22:59:57Z,2021,23,0,250.9583,250.9583,77.36978,-17.09676,997.6,-999.0,-999.0,yes,no,no,300534061518060,ITB-17,USIABP,HDMS_Triton,North
2021-09-08T00:00:00Z,2021,0,0,251.0,251.0,77.36386,-17.11099,997.7,-999.0,-999.0,yes,no,no,300534061518060,ITB-17,USIABP,HDMS_Triton,North
2021-09-08T01:00:02Z,2021,1,0,251.0417,251.0417,77.35879,-17.12273,997.7,-999.0,-999.0,yes,no,no,300534061518060,ITB-17,USIABP,HDMS_Triton,North
2021-09-08T01:59:57Z,2021,2,0,251.0833,251.0833,77.35497,-17.13253,997.9,-999.0,-999.0,yes,no,no,300534061518060,ITB-17,USIABP,HDMS_Triton,North
2021-09-08T03:00:00Z,2021,3,0,251.125,251.125,77.35219,-17.14052,998.2,-999.0,-999.0,yes,no,no,300534061518060,ITB-17,USIABP,HDMS_Triton,North
2021-09-08T04:00:02Z,2021,4,0,251.1667,251.1667,77.34966,-17.14621,998.5,-999.0,-999.0,yes,no,no,300534061518060,ITB-17,USIABP,HDMS_Triton,North
2021-09-08T04:59:57Z,2021,5,0,251.2083,251.2083,77.34719,-17.15316,998.7,-999.0,-999.0,yes,no,no,300534061518060,ITB-17,USIABP,HDMS_Triton,North
2021-09-08T06:00:00Z,2021,6,0,251.25,251.25,77.34488,-17.16502,999.1,-999.0,-999.0,yes,no,no,300534061518060,ITB-17,USIABP,HDMS_Triton,North
2021-09-08T07:00:02Z,2021,7,0,251.2917,251.2917,77.34152,-17.17819,999.6,-999.0,-999.0,yes,no,no,300534061518060,ITB-17,USIABP,HDMS_Triton,North
2021-09-08T07:59:57Z,2021,8,0,251.3333,251.3333,77.337,-17.19521,1000.3,-999.0,-999.0,yes,no,no,300534061518060,ITB-17,USIABP,HDMS_Triton,North
2021-09-08T09:00:00Z,2021,9,0,251.375,251.375,77.33166,-17.21772,1000.6,-999.0,-999.0,yes,no,no,300534061518060,ITB-17,USIABP,HDMS_Triton,North
2021-09-08T10:00:02Z,2021,10,0,251.4167,251.4167,77.32588,-17.24283,1001.2,-999.0,-999.0,yes,no,no,300534061518060,ITB-17,USIABP,HDMS_Triton,North
2021-09-08T10:59:57Z,2021,11,0,251.4583,251.4583,77.32101,-17.26968,1001.9,-999.0,-999.0,yes,no,no,300534061518060,ITB-17,USIABP,HDMS_Triton,North
2021-09-08T12:00:00Z,2021,12,0,251.5,251.5,77.31674,-17.29841,1002.6,-999.0,-999.0,yes,no,no,300534061518060,ITB-17,USIABP,HDMS_Triton,North
2021-09-08T13:00:02Z,2021,13,0,251.5417,251.5417,77.31289,-17.32833,1003.2,-999.0,-999.0,yes,no,no,300534061518060,ITB-17,USIABP,HDMS_Triton,North
2021-09-08T13:59:57Z,2021,14,0,251.5833,251.5833,77.31028,-17.35768,1003.8,-999.0,-999.0,yes,no,no,300534061518060,ITB-17,USIABP,HDMS_Triton,North
2021-09-08T15:00:00Z,2021,15,0,251.625,251.625,77.30964,-17.38369,1004.4,-999.0,-999.0,yes,no,no,300534061518060,ITB-17,USIABP,HDMS_Triton,North
2021-09-08T16:00:02Z,2021,16,0,251.6667,251.6667,77.31071,-17.404,1004.8,-999.0,-999.0,yes,no,no,300534061518060,ITB-17,USIABP,HDMS_Triton,North
2021-09-08T16:59:57Z,2021,17,0,251.7083,251.7083,77.31286,-17.41691,1005.4,-999.0,-999.0,yes,no,no,300534061518060,ITB-17,USIABP,HDMS_Triton,North
2021-09-08T18:00:00Z,2021,18,0,251.75,251.75,77.31538,-17.42293,1005.9,-999.0,-999.0,yes,no,no,300534061518060,ITB-17,USIABP,HDMS_Triton,North
2021-09-08T19:00:02Z,2021,19,0,251.7917,251.7917,77.31701,-17.42595,1006.3,-999.0,-999.0,yes,no,no,300534061518060,ITB-17,USIABP,HDMS_Triton,North
2021-09-08T19:59:57Z,2021,20,0,251.8333,251.8333,77.31676,-17.42947,1006.6,-999.0,-999.0,yes,no,no,300534061518060,ITB-17,USIABP,HDMS_Triton,North
2021-09-08T21:00:00Z,2021,21,0,251.875,251.875,77.31488,-17.43746,1006.9,-999.0,-999.0,yes,no,no,300534061518060,ITB-17,USIABP,HDMS_Triton,North
2021-09-08T22:00:02Z,2021,22,0,251.9167,251.9167,77.31229,-17.44837,1007.1,-999.0,-999.0,yes,no,no,300534061518060,ITB-17,USIABP,HDMS_Triton,North
2021-09-08T22:59:57Z,2021,23,0,251.9583,251.9583,77.30874,-17.45968,1007.2,-999.0,-999.0,yes,no,no,300534061518060,ITB-17,USIABP,HDMS_Triton,North
2021-09-09T00:00:00Z,2021,0,0,252.0,252.0,77.30517,-17.47121,1007.6,-999.0,-999.0,yes,no,no,300534061518060,ITB-17,USIABP,HDMS_Triton,North
2021-09-09T01:00:02Z,2021,1,0,252.0417,252.0417,77.30151,-17.48384,1008.0,-999.0,-999.0,yes,no,no,300534061518060,ITB-17,USIABP,HDMS_Triton,North
2021-09-09T01:59:57Z,2021,2,0,252.0833,252.0833,77.29789,-17.49129,1008.4,-999.0,-999.0,yes,no,no,300534061518060,ITB-17,USIABP,HDMS_Triton,North
2021-09-09T03:00:00Z,2021,3,0,252.125,252.125,77.29428,-17.49301,1008.4,-999.0,-999.0,yes,no,no,300534061518060,ITB-17,USIABP,HDMS_Triton,North
2021-09-09T04:00:02Z,2021,4,0,252.1667,252.1667,77.29072,-17.49422,1008.5,-999.0,-999.0,yes,no,no,300534061518060,ITB-17,USIABP,HDMS_Triton,North
2021-09-09T04:59:57Z,2021,5,0,252.2083,252.2083,77.28705,-17.49594,1008.6,-999.0,-999.0,yes,no,no,300534061518060,ITB-17,USIABP,HDMS_Triton,North
2021-09-09T06:00:00Z,2021,6,0,252.25,252.25,77.28267,-17.49994,1008.5,-999.0,-999.0,yes,no,no,300534061518060,ITB-17,USIABP,HDMS_Triton,North
2021-09-09T07:00:02Z,2021,7,0,252.2917,252.2917,77.27781,-17.50719,1008.7,-999.0,-999.0,yes,no,no,300534061518060,ITB-17,USIABP,HDMS_Triton,North
2021-09-09T07:59:57Z,2021,8,0,252.3333,252.3333,77.27244,-17.51718,1008.9,-999.0,-999.0,yes,no,no,300534061518060,ITB-17,USIABP,HDMS_Triton,North
2021-09-09T09:00:00Z,2021,9,0,252.375,252.375,77.26653,-17.53073,1008.8,-999.0,-999.0,yes,no,no,300534061518060,ITB-17,USIABP,HDMS_Triton,North
2021-09-09T10:00:02Z,2021,10,0,252.4167,252.4167,77.25914,-17.54525,1008.9,-999.0,-999.0,yes,no,no,300534061518060,ITB-17,USIABP,HDMS_Triton,North
2021-09-09T10:59:57Z,2021,11,0,252.4583,252.4583,77.25065,-17.55485,1008.8,-999.0,-999.0,yes,no,no,300534061518060,ITB-17,USIABP,HDMS_Triton,North
2021-09-09T12:00:00Z,2021,12,0,252.5,252.5,77.24156,-17.55871,1008.6,-999.0,-999.0,yes,no,no,300534061518060,ITB-17,USIABP,HDMS_Triton,North
2021-09-09T13:00:02Z,2021,13,0,252.5417,252.5417,77.23207,-17.55971,1008.7,-999.0,-999.0,yes,no,no,300534061518060,ITB-17,USIABP,HDMS_Triton,North
2021-09-09T13:59:57Z,2021,14,0,252.5833,252.5833,77.22335,-17.56427,1008.8,-999.0,-999.0,yes,no,no,300534061518060,ITB-17,USIABP,HDMS_Triton,North
2021-09-09T15:00:00Z,2021,15,0,252.625,252.625,77.21549,-17.57387,1008.9,-999.0,-999.0,yes,no,no,300534061518060,ITB-17,USIABP,HDMS_Triton,North
2021-09-09T16:00:02Z,2021,16,0,252.6667,252.6667,77.20852,-17.58281,1009.0,-999.0,-999.0,yes,no,no,300534061518060,ITB-17,USIABP,HDMS_Triton,North
2021-09-09T16:59:57Z,2021,17,0,252.7083,252.7083,77.20187,-17.58696,1009.1,-999.0,-999.0,yes,no,no,300534061518060,ITB-17,USIABP,HDMS_Triton,North
2021-09-09T18:00:00Z,2021,18,0,252.75,252.75,77.19502,-17.59028,1009.4,-999.0,-999.0,yes,no,no,300534061518060,ITB-17,USIABP,HDMS_Triton,North
2021-09-09T19:00:02Z,2021,19,0,252.7917,252.7917,77.18758,-17.59397,1009.8,-999.0,-999.0,yes,no,no,300534061518060,ITB-17,USIABP,HDMS_Triton,North
2021-09-09T19:59:57Z,2021,20,0,252.8333,252.8333,77.17947,-17.59801,1010.1,-999.0,-999.0,yes,no,no,300534061518060,ITB-17,USIABP,HDMS_Triton,North
2021-09-09T21:00:00Z,2021,21,0,252.875,252.875,77.17076,-17.60537,1010.6,-999.0,-999.0,yes,no,no,300534061518060,ITB-17,USIABP,HDMS_Triton,North
2021-09-09T22:00:02Z,2021,22,0,252.9167,252.9167,77.16152,-17.61413,1010.9,-999.0,-999.0,yes,no,no,300534061518060,ITB-17,USIABP,HDMS_Triton,North
2021-09-09T22:59:57Z,2021,23,0,252.9583,252.9583,77.15144,-17.62226,1011.2,-999.0,-999.0,yes,no,no,300534061518060,ITB-17,USIABP,HDMS_Triton,North
2021-09-10T00:00:00Z,2021,0,0,253.0,253.0,77.14026,-17.63164,1011.5,-999.0,-999.0,yes,no,no,300534061518060,ITB-17,USIABP,HDMS_Triton,North
2021-09-10T01:00:02Z,2021,1,0,253.0417,253.0417,77.12885,-17.64414,1011.8,-999.0,-999.0,yes,no,no,300534061518060,ITB-17,USIABP,HDMS_Triton,North
2021-09-10T01:59:57Z,2021,2,0,253.0833,253.0833,77.11778,-17.65731,1011.9,-999.0,-999.0,yes,no,no,300534061518060,ITB-17,USIABP,HDMS_Triton,North
2021-09-10T03:00:00Z,2021,3,0,253.125,253.125,77.10717,-17.669,1012.0,-999.0,-999.0,yes,no,no,300534061518060,ITB-17,USIABP,HDMS_Triton,North
2021-09-10T04:00:02Z,2021,4,0,253.1667,253.1667,77.09712,-17.67763,1012.3,-999.0,-999.0,yes,no,no,300534061518060,ITB-17,USIABP,HDMS_Triton,North
2021-09-10T04:59:57Z,2021,5,0,253.2083,253.2083,77.08768,-17.68601,1012.5,-999.0,-999.0,yes,no,no,300534061518060,ITB-17,USIABP,HDMS_Triton,North
2021-09-10T06:00:00Z,2021,6,0,253.25,253.25,77.07844,-17.69693,1013.0,-999.0,-999.0,yes,no,no,300534061518060,ITB-17,USIABP,HDMS_Triton,North
2021-09-10T07:00:02Z,2021,7,0,253.2917,253.2917,77.06953,-17.71053,1013.2,-999.0,-999.0,yes,no,no,300534061518060,ITB-17,USIABP,HDMS_Triton,North
2021-09-10T07:59:57Z,2021,8,0,253.3333,253.3333,77.06052,-17.72733,1013.5,-999.0,-999.0,yes,no,no,300534061518060,ITB-17,USIABP,HDMS_Triton,North
2021-09-10T09:00:00Z,2021,9,0,253.375,253.375,77.05121,-17.74561,1013.7,-999.0,-999.0,yes,no,no,300534061518060,ITB-17,USIABP,HDMS_Triton,North
2021-09-10T10:00:02Z,2021,10,0,253.4167,253.4167,77.04127,-17.76351,1013.9,-999.0,-999.0,yes,no,no,300534061518060,ITB-17,USIABP,HDMS_Triton,North
2021-09-10T10:59:57Z,2021,11,0,253.4583,253.4583,77.03094,-17.78173,1013.9,-999.0,-999.0,yes,no,no,300534061518060,ITB-17,USIABP,HDMS_Triton,North
2021-09-10T12:00:00Z,2021,12,0,253.5,253.5,77.02006,-17.7998,1013.9,-999.0,-999.0,yes,no,no,300534061518060,ITB-17,USIABP,HDMS_Triton,North
2021-09-10T13:00:02Z,2021,13,0,253.5417,253.5417,77.00852,-17.81936,1014.0,-999.0,-999.0,yes,no,no,300534061518060,ITB-17,USIABP,HDMS_Triton,North
2021-09-10T13:59:57Z,2021,14,0,253.5833,253.5833,76.99661,-17.84094,1014.1,-999.0,-999.0,yes,no,no,300534061518060,ITB-17,USIABP,HDMS_Triton,North
2021-09-10T15:00:00Z,2021,15,0,253.625,253.625,76.98457,-17.86166,1014.0,-999.0,-999.0,yes,no,no,300534061518060,ITB-17,USIABP,HDMS_Triton,North
2021-09-10T16:00:02Z,2021,16,0,253.6667,253.6667,76.97264,-17.88122,1013.7,-999.0,-999.0,yes,no,no,300534061518060,ITB-17,USIABP,HDMS_Triton,North
2021-09-10T16:59:57Z,2021,17,0,253.7083,253.7083,76.96112,-17.89686,1013.5,-999.0,-999.0,yes,no,no,300534061518060,ITB-17,USIABP,HDMS_Triton,North
2021-09-10T18:00:00Z,2021,18,0,253.75,253.75,76.94996,-17.9112,1013.3,-999.0,-999.0,yes,no,no,300534061518060,ITB-17,USIABP,HDMS_Triton,North
2021-09-10T19:00:02Z,2021,19,0,253.7917,253.7917,76.93883,-17.92445,1013.3,-999.0,-999.0,yes,no,no,300534061518060,ITB-17,USIABP,HDMS_Triton,North
2021-09-10T19:59:57Z,2021,20,0,253.8333,253.8333,76.9273,-17.93612,1013.6,-999.0,-999.0,yes,no,no,300534061518060,ITB-17,USIABP,HDMS_Triton,North
2021-09-10T21:00:00Z,2021,21,0,253.875,253.875,76.91564,-17.94533,1013.5,-999.0,-999.0,yes,no,no,300534061518060,ITB-17,USIABP,HDMS_Triton,North
2021-09-10T22:00:02Z,2021,22,0,253.9167,253.9167,76.90326,-17.95453,1013.4,-999.0,-999.0,yes,no,no,300534061518060,ITB-17,USIABP,HDMS_Triton,North
2021-09-10T22:59:57Z,2021,23,0,253.9583,253.9583,76.88989,-17.96605,1013.2,-999.0,-999.0,yes,no,no,300534061518060,ITB-17,USIABP,HDMS_Triton,North
2021-09-11T00:00:00Z,2021,0,0,254.0,254.0,76.87607,-17.97877,1013.5,-999.0,-999.0,yes,no,no,300534061518060,ITB-17,USIABP,HDMS_Triton,North
2021-09-11T01:00:02Z,2021,1,0,254.0417,254.0417,76.86211,-17.99337,1013.2,-999.0,-999.0,yes,no,no,300534061518060,ITB-17,USIABP,HDMS_Triton,North
2021-09-11T01:59:57Z,2021,2,0,254.0833,254.0833,76.8481,-18.00678,1013.2,-999.0,-999.0,yes,no,no,300534061518060,ITB-17,USIABP,HDMS_Triton,North
2021-09-11T03:00:00Z,2021,3,0,254.125,254.125,76.83444,-18.01456,1013.3,-999.0,-999.0,yes,no,no,300534061518060,ITB-17,USIABP,HDMS_Triton,North
2021-09-11T04:00:02Z,2021,4,0,254.1667,254.1667,76.82129,-18.01667,1013.4,-999.0,-999.0,yes,no,no,300534061518060,ITB-17,USIABP,HDMS_Triton,North
2021-09-11T04:59:57Z,2021,5,0,254.2083,254.2083,76.80856,-18.02001,1013.5,-999.0,-999.0,yes,no,no,300534061518060,ITB-17,USIABP,HDMS_Triton,North
2021-09-11T06:00:00Z,2021,6,0,254.25,254.25,76.79601,-18.02765,1013.7,-999.0,-999.0,yes,no,no,300534061518060,ITB-17,USIABP,HDMS_Triton,North
2021-09-11T07:00:02Z,2021,7,0,254.2917,254.2917,76.78413,-18.03619,1014.1,-999.0,-999.0,yes,no,no,300534061518060,ITB-17,USIABP,HDMS_Triton,North
2021-09-11T07:59:57Z,2021,8,0,254.3333,254.3333,76.77201,-18.04472,1014.5,-999.0,-999.0,yes,no,no,300534061518060,ITB-17,USIABP,HDMS_Triton,North
2021-09-11T09:00:00Z,2021,9,0,254.375,254.375,76.75965,-18.05658,1014.6,-999.0,-999.0,yes,no,no,300534061518060,ITB-17,USIABP,HDMS_Triton,North
2021-09-11T10:00:02Z,2021,10,0,254.4167,254.4167,76.74713,-18.07431,1014.7,-999.0,-999.0,yes,no,no,300534061518060,ITB-17,USIABP,HDMS_Triton,North
2021-09-11T10:59:57Z,2021,11,0,254.4583,254.4583,76.73422,-18.09476,1015.0,-999.0,-999.0,yes,no,no,300534061518060,ITB-17,USIABP,HDMS_Triton,North
2021-09-11T12:00:00Z,2021,12,0,254.5,254.5,76.72005,-18.11478,1014.9,-999.0,-999.0,yes,no,no,300534061518060,ITB-17,USIABP,HDMS_Triton,North
2021-09-11T13:00:02Z,2021,13,0,254.5417,254.5417,76.70558,-18.13349,1015.0,-999.0,-999.0,yes,no,no,300534061518060,ITB-17,USIABP,HDMS_Triton,North
2021-09-11T13:59:57Z,2021,14,0,254.5833,254.5833,76.69099,-18.15248,1015.0,-999.0,-999.0,yes,no,no,300534061518060,ITB-17,USIABP,HDMS_Triton,North
2021-09-11T15:00:00Z,2021,15,0,254.625,254.625,76.67634,-18.16971,1014.8,-999.0,-999.0,yes,no,no,300534061518060,ITB-17,USIABP,HDMS_Triton,North
2021-09-11T16:00:02Z,2021,16,0,254.6667,254.6667,76.66173,-18.1831,1014.4,-999.0,-999.0,yes,no,no,300534061518060,ITB-17,USIABP,HDMS_Triton,North
2021-09-11T16:59:57Z,2021,17,0,254.7083,254.7083,76.64762,-18.19633,1013.9,-999.0,-999.0,yes,no,no,300534061518060,ITB-17,USIABP,HDMS_Triton,North
2021-09-11T18:00:00Z,2021,18,0,254.75,254.75,76.6354,-18.21306,1013.6,-999.0,-999.0,yes,no,no,300534061518060,ITB-17,USIABP,HDMS_Triton,North
2021-09-11T19:00:02Z,2021,19,0,254.7917,254.7917,76.62546,-18.23501,1013.4,-999.0,-999.0,yes,no,no,300534061518060,ITB-17,USIABP,HDMS_Triton,North
2021-09-11T19:59:57Z,2021,20,0,254.8333,254.8333,76.61528,-18.26295,1013.3,-999.0,-999.0,yes,no,no,300534061518060,ITB-17,USIABP,HDMS_Triton,North
2021-09-11T21:00:00Z,2021,21,0,254.875,254.875,76.60639,-18.29424,1012.9,-999.0,-999.0,yes,no,no,300534061518060,ITB-17,USIABP,HDMS_Triton,North
2021-09-11T22:00:02Z,2021,22,0,254.9167,254.9167,76.59803,-18.32609,1012.6,-999.0,-999.0,yes,no,no,300534061518060,ITB-17,USIABP,HDMS_Triton,North
2021-09-11T22:59:57Z,2021,23,0,254.9583,254.9583,76.58915,-18.35647,1012.6,-999.0,-999.0,yes,no,no,300534061518060,ITB-17,USIABP,HDMS_Triton,North
2021-09-12T00:00:00Z,2021,0,0,255.0,255.0,76.58054,-18.38764,1012.6,-999.0,-999.0,yes,no,no,300534061518060,ITB-17,USIABP,HDMS_Triton,North
2021-09-12T01:00:02Z,2021,1,0,255.0417,255.0417,76.57221,-18.41914,1012.2,-999.0,-999.0,yes,no,no,300534061518060,ITB-17,USIABP,HDMS_Triton,North
2021-09-12T01:59:57Z,2021,2,0,255.0833,255.0833,76.56353,-18.44886,1012.0,-999.0,-999.0,yes,no,no,300534061518060,ITB-17,USIABP,HDMS_Triton,North
2021-09-12T03:00:00Z,2021,3,0,255.125,255.125,76.55458,-18.47742,1011.5,-999.0,-999.0,yes,no,no,300534061518060,ITB-17,USIABP,HDMS_Triton,North
2021-09-12T04:00:02Z,2021,4,0,255.1667,255.1667,76.5468,-18.50542,1011.3,-999.0,-999.0,yes,no,no,300534061518060,ITB-17,USIABP,HDMS_Triton,North
2021-09-12T04:59:57Z,2021,5,0,255.2083,255.2083,76.54068,-18.52797,1010.9,-999.0,-999.0,yes,no,no,300534061518060,ITB-17,USIABP,HDMS_Triton,North
2021-09-12T06:00:00Z,2021,6,0,255.25,255.25,76.53547,-18.54718,1010.9,-999.0,-999.0,yes,no,no,300534061518060,ITB-17,USIABP,HDMS_Triton,North
2021-09-12T07:00:02Z,2021,7,0,255.2917,255.2917,76.53015,-18.5627,1010.7,-999.0,-999.0,yes,no,no,300534061518060,ITB-17,USIABP,HDMS_Triton,North
2021-09-12T07:59:57Z,2021,8,0,255.3333,255.3333,76.52526,-18.57576,1010.8,-999.0,-999.0,yes,no,no,300534061518060,ITB-17,USIABP,HDMS_Triton,North
2021-09-12T09:00:00Z,2021,9,0,255.375,255.375,76.52506,-18.57628,1010.7,-999.0,-999.0,yes,no,no,300534061518060,ITB-17,USIABP,HDMS_Triton,North
2021-09-12T10:00:02Z,2021,10,0,255.4167,255.4167,76.52504,-18.57633,1010.8,-999.0,-999.0,yes,no,no,300534061518060,ITB-17,USIABP,HDMS_Triton,North
2021-09-12T10:59:57Z,2021,11,0,255.4583,255.4583,76.52504,-18.57635,1010.8,-999.0,-999.0,yes,no,no,300534061518060,ITB-17,USIABP,HDMS_Triton,North
2021-09-12T12:00:00Z,2021,12,0,255.5,255.5,76.52502,-18.57627,1011.2,-999.0,-999.0,yes,no,no,300534061518060,ITB-17,USIABP,HDMS_Triton,North
2021-09-12T13:00:02Z,2021,13,0,255.5417,255.5417,76.52499,-18.57624,1011.5,-999.0,-999.0,yes,no,no,300534061518060,ITB-17,USIABP,HDMS_Triton,North
2021-09-12T13:59:57Z,2021,14,0,255.5833,255.5833,76.52497,-18.57619,1011.6,-999.0,-999.0,yes,no,no,300534061518060,ITB-17,USIABP,HDMS_Triton,North
2021-09-12T15:00:00Z,2021,15,0,255.625,255.625,76.52498,-18.57615,1011.7,-999.0,-999.0,yes,no,no,300534061518060,ITB-17,USIABP,HDMS_Triton,North
2021-09-12T16:00:02Z,2021,16,0,255.6667,255.6667,76.52497,-18.57614,1011.5,-999.0,-999.0,yes,no,no,300534061518060,ITB-17,USIABP,HDMS_Triton,North
2021-09-12T16:59:57Z,2021,17,0,255.7083,255.7083,76.52498,-18.57609,1011.4,-999.0,-999.0,yes,no,no,300534061518060,ITB-17,USIABP,HDMS_Triton,North
2021-09-12T18:00:00Z,2021,18,0,255.75,255.75,76.52499,-18.57616,1012.2,-999.0,-999.0,yes,no,no,300534061518060,ITB-17,USIABP,HDMS_Triton,North
2021-09-12T19:00:02Z,2021,19,0,255.7917,255.7917,76.525,-18.57614,1012.6,-999.0,-999.0,yes,no,no,300534061518060,ITB-17,USIABP,HDMS_Triton,North
2021-09-12T19:59:57Z,2021,20,0,255.8333,255.8333,76.525,-18.57609,1012.8,-999.0,-999.0,yes,no,no,300534061518060,ITB-17,USIABP,HDMS_Triton,North
2021-09-12T21:00:00Z,2021,21,0,255.875,255.875,76.52502,-18.57616,1013.1,-999.0,-999.0,yes,no,no,300534061518060,ITB-17,USIABP,HDMS_Triton,North
2021-09-12T22:00:02Z,2021,22,0,255.9167,255.9167,76.525,-18.57613,1013.0,-999.0,-999.0,yes,no,no,300534061518060,ITB-17,USIABP,HDMS_Triton,North
2021-09-12T22:59:57Z,2021,23,0,255.9583,255.9583,76.525,-18.57609,1013.4,-999.0,-999.0,yes,no,no,300534061518060,ITB-17,USIABP,HDMS_Triton,North
2021-09-13T00:00:00Z,2021,0,0,256.0,256.0,76.525,-18.57605,1013.4,-999.0,-999.0,yes,no,no,300534061518060,ITB-17,USIABP,HDMS_Triton,North
2021-09-13T01:00:02Z,2021,1,0,256.0417,256.0417,76.52502,-18.5759,1013.4,-999.0,-999.0,yes,no,no,300534061518060,ITB-17,USIABP,HDMS_Triton,North
2021-09-13T01:59:57Z,2021,2,0,256.0833,256.0833,76.52506,-18.57547,1013.4,-999.0,-999.0,yes,no,no,300534061518060,ITB-17,USIABP,HDMS_Triton,North
2021-09-13T03:00:00Z,2021,3,0,256.125,256.125,76.52506,-18.57555,1013.4,-999.0,-999.0,yes,no,no,300534061518060,ITB-17,USIABP,HDMS_Triton,North
2021-09-13T04:00:02Z,2021,4,0,256.1667,256.1667,76.52505,-18.57562,1013.0,-999.0,-999.0,yes,no,no,300534061518060,ITB-17,USIABP,HDMS_Triton,North
2021-09-13T04:59:57Z,2021,5,0,256.2083,256.2083,76.52507,-18.57564,1013.0,-999.0,-999.0,yes,no,no,300534061518060,ITB-17,USIABP,HDMS_Triton,North
2021-09-13T06:00:00Z,2021,6,0,256.25,256.25,76.52505,-18.57546,1012.8,-999.0,-999.0,yes,no,no,300534061518060,ITB-17,USIABP,HDMS_Triton,North
2021-09-13T07:00:02Z,2021,7,0,256.2917,256.2917,76.52506,-18.5755,1012.8,-999.0,-999.0,yes,no,no,300534061518060,ITB-17,USIABP,HDMS_Triton,North
2021-09-13T07:59:57Z,2021,8,0,256.3333,256.3333,76.52506,-18.57556,1012.3,-999.0,-999.0,yes,no,no,300534061518060,ITB-17,USIABP,HDMS_Triton,North
2021-09-13T09:00:00Z,2021,9,0,256.375,256.375,76.52509,-18.57558,1011.9,-999.0,-999.0,yes,no,no,300534061518060,ITB-17,USIABP,HDMS_Triton,North
2021-09-13T10:00:02Z,2021,10,0,256.4167,256.4167,76.52508,-18.57559,1011.6,-999.0,-999.0,yes,no,no,300534061518060,ITB-17,USIABP,HDMS_Triton,North
2021-09-13T10:59:57Z,2021,11,0,256.4583,256.4583,76.5251,-18.57556,1011.3,-999.0,-999.0,yes,no,no,300534061518060,ITB-17,USIABP,HDMS_Triton,North
2021-09-13T12:00:00Z,2021,12,0,256.5,256.5,76.52516,-18.57542,1010.9,-999.0,-999.0,yes,no,no,300534061518060,ITB-17,USIABP,HDMS_Triton,North
2021-09-13T13:00:02Z,2021,13,0,256.5417,256.5417,76.52544,-18.57474,1010.0,-999.0,-999.0,yes,no,no,300534061518060,ITB-17,USIABP,HDMS_Triton,North